Pearl, MS

2:50 PM CST on December 02, 2016 (GMT -0600)
Jackson-Evers International

Weather History for KJAN - January, 2015

Change the Weather History Date:

Tuesday, January 20, 2015

  Actual Average Record
Temperature  
Mean Temperature 53 °F 46 °F  
Max Temperature 69 °F 56 °F 81 °F (1935)
Min Temperature 36 °F 35 °F 2 °F (1985)
Degree Days  
Heating Degree Days 12 19  
Month to date heating degree days 437 399  
Since 1 July heating degree days 1365 1349  
Cooling Degree Days 0 0  
Month to date cooling degree days 0 0  
Year to date cooling degree days 0 0  
Growing Degree Days 3 (Base 50)    
Moisture  
Dew Point 43 °F    
Average Humidity 67    
Maximum Humidity 92    
Minimum Humidity 42    
Precipitation  
Precipitation 0.00 in 0.16 in 2.86 in (1979)
Month to date precipitation 3.06 3.06  
Year to date precipitation 3.06 3.06  
Sea Level Pressure  
Sea Level Pressure 30.01 in    
Wind  
Wind Speed 3 mph (SSW)    
Max Wind Speed 10 mph    
Max Gust Speed 13 mph    
Visibility 10 miles    
Events      
T = Trace of Precipitation, MM = Missing Value Source: NWS Daily Summary

Daily Weather History Graph

Daily Weather History Graph

Search for Another Location

Airport or City:

Trip Planner

Search our weather history database for the weather conditions in past years. The results will help you decide how hot, cold, wet, or windy it might be!

Date:

Astronomy

Jan. 20, 2015 Rise Set
Actual Time 7:00 AM CST 5:22 PM CST
Civil Twilight 6:34 AM CST 5:48 PM CST
Nautical Twilight 6:04 AM CST 6:18 PM CST
Astronomical Twilight 5:34 AM CST 6:47 PM CST
Moon 6:47 AM CST (1/20) 5:55 PM CST (1/20)
Length of Visible Light 11h 14m
Length of Day
10h 21m
New Moon, 0% of the Moon is Illuminated
Jan 20
New Moon
Jan 26
First Quarter
Feb 3
Full
Feb 11
Last Quarter
Feb 18
New

Hourly Weather History & Observations

Time (CST) Temp. Windchill Dew Point Humidity Pressure Visibility Wind Dir Wind Speed Gust Speed Precip Events Conditions
12:54 AM 46.9 °F - 39.0 °F 74% 30.01 in 10.0 mi South 6.9 mph - N/A   Clear
1:54 AM 43.0 °F 41.3 °F 37.0 °F 80% 30.02 in 10.0 mi SSE 3.5 mph - N/A   Clear
2:54 AM 39.0 °F 34.8 °F 36.0 °F 89% 30.00 in 10.0 mi SSE 5.8 mph - N/A   Clear
3:54 AM 39.0 °F - 36.0 °F 89% 29.99 in 10.0 mi Calm Calm - N/A   Clear
4:54 AM 36.0 °F 33.3 °F 34.0 °F 93% 30.00 in 10.0 mi SE 3.5 mph - N/A   Clear
5:54 AM 39.0 °F 36.8 °F 36.0 °F 89% 30.01 in 10.0 mi SSE 3.5 mph - N/A   Clear
6:54 AM 39.0 °F - 36.0 °F 89% 30.02 in 10.0 mi Calm Calm - N/A   Partly Cloudy
7:54 AM 42.1 °F - 39.9 °F 92% 30.03 in 8.0 mi Calm Calm - N/A   Clear
8:54 AM 50.0 °F - 45.0 °F 83% 30.04 in 10.0 mi South 4.6 mph - N/A   Scattered Clouds
9:54 AM 55.9 °F - 46.9 °F 72% 30.04 in 10.0 mi Variable 4.6 mph - N/A   Mostly Cloudy
10:41 AM 60.1 °F - 50.0 °F 69% 30.03 in 10.0 mi Variable 4.6 mph - N/A   Mostly Cloudy
10:54 AM 60.1 °F - 50.0 °F 69% 30.02 in 10.0 mi North - - N/A   Mostly Cloudy
11:54 AM 62.6 °F - 50.0 °F 63% 30.00 in 10.0 mi West 4.6 mph - N/A   Mostly Cloudy
12:54 PM 66.0 °F - 46.0 °F 48% 29.96 in 10.0 mi WSW 5.8 mph - N/A   Scattered Clouds
1:54 PM 68.0 °F - 45.0 °F 43% 29.95 in 10.0 mi SW 6.9 mph - N/A   Scattered Clouds
2:54 PM 68.0 °F - 44.1 °F 42% 29.95 in 10.0 mi West 5.8 mph - N/A   Partly Cloudy
3:54 PM 68.0 °F - 45.0 °F 43% 29.96 in 10.0 mi SSW 3.5 mph - N/A   Scattered Clouds
4:54 PM 66.0 °F - 44.1 °F 45% 29.96 in 10.0 mi WNW 4.6 mph - N/A   Scattered Clouds
5:54 PM 53.1 °F - 45.0 °F 74% 29.98 in 10.0 mi Calm Calm - N/A   Scattered Clouds
6:54 PM 52.0 °F - 45.0 °F 77% 30.00 in 10.0 mi Calm Calm - N/A   Clear
7:54 PM 48.9 °F - 43.0 °F 80% 30.03 in 10.0 mi Calm Calm - N/A   Mostly Cloudy
8:54 PM 52.0 °F - 45.0 °F 77% 30.03 in 10.0 mi Calm Calm - N/A   Clear
9:54 PM 52.0 °F - 45.0 °F 77% 30.03 in 10.0 mi North 3.5 mph - N/A   Clear
10:54 PM 48.0 °F - 43.0 °F 83% 30.05 in 10.0 mi Calm Calm - N/A   Clear
11:54 PM 44.1 °F - 42.1 °F 93% 30.06 in 10.0 mi Calm Calm - N/A   Clear